Wind_Speed
3 5 6 8 10 11 12 13 14 14 15 15 15 16 16 16 16 16 15 13 12 11 10 10 10 10 10 11 10 10 10 9 9 10 11 12 14 16 17 17 18 19 19 18 17 16 15 13 12 11 10 10 10 9 10 10 10 10 11 12 12 13 14 13 12 11 11 11 11 14 17 19 20 21 21 19 19 22 26 28 30 33 36 40 43
5 7 9 11 13 14 14 15 15 17 17 17 18 18 18 17 18 18 17 15 14 13 12 11 10 9 10 11 11 11 10 10 10 10 11 12 15 17 17 17 19 20 20 19 19 18 17 15 14 13 11 11 10 10 11 11 10 10 10 11 12 14 14 14 12 12 12 10 9 9 10 13 15 19 22 21 18 16 19 24 29 32 34 37 40
8 10 12 14 16 17 16 16 17 18 19 19 20 20 20 19 18 19 18 17 16 15 14 13 12 11 10 11 11 11 12 11 11 11 10 11 14 16 16 17 20 22 22 22 21 20 18 17 15 14 13 12 11 11 11 12 11 11 11 11 11 13 13 13 12 12 13 11 8 7 7 7 8 12 17 21 22 19 17 19 26 31 32 34 37
10 12 15 17 18 18 18 19 20 21 22 23 24 25 25 22 20 21 20 18 18 17 16 15 14 12 12 12 12 12 12 11 11 11 10 11 14 15 15 19 22 22 23 23 21 21 20 18 17 16 15 14 14 13 13 13 13 12 11 11 10 11 12 13 11 11 13 11 8 6 6 6 6 7 8 13 17 20 20 19 22 29 31 32 35
12 15 18 22 24 25 25 24 24 25 25 27 28 30 30 28 26 24 22 20 19 18 18 16 14 13 12 12 12 12 12 11 11 11 11 13 15 14 16 19 21 22 23 23 22 21 21 20 19 18 17 16 16 16 16 15 14 13 12 11 11 11 11 12 11 11 11 12 11 8 6 5 6 5 6 6 8 10 14 16 17 22 27 31 34
18 20 22 26 28 27 26 25 26 27 27 29 31 31 31 31 30 29 26 24 22 21 20 18 16 15 13 13 13 14 14 14 14 13 13 14 15 16 18 19 19 22 24 24 22 21 21 21 20 19 18 18 18 18 18 16 15 13 12 11 11 11 11 11 11 11 11 12 14 14 12 9 7 6 6 5 5 6 9 11 13 15 20 26 29
19 21 24 26 26 26 26 27 29 30 31 31 30 29 29 30 30 30 29 28 25 24 22 20 18 17 16 15 15 15 15 16 15 15 15 14 15 16 18 18 19 22 23 23 22 21 21 21 21 21 20 19 19 20 19 17 16 14 11 10 10 11 11 11 11 11 11 12 14 15 16 15 13 10 7 6 6 8 8 7 9 11 14 18 21
18 18 21 23 24 27 28 28 29 29 29 28 28 28 28 29 29 29 29 29 28 27 25 23 20 18 17 18 18 17 17 17 16 14 14 14 16 17 17 18 20 21 23 23 21 21 22 23 22 22 21 20 20 21 20 18 16 13 10 8 9 9 10 11 11 11 11 12 13 14 16 16 15 15 13 11 8 7 8 9 9 10 11 14 17
19 16 18 23 26 27 26 25 26 26 25 27 28 29 29 28 28 28 28 29 28 28 28 26 23 20 19 21 22 20 18 17 16 14 14 14 16 17 18 20 20 20 22 22 21 21 23 24 24 23 22 21 22 22 21 18 15 12 9 8 8 8 8 9 9 11 12 12 12 13 14 14 15 15 15 15 11 9 9 9 10 9 9 13 16
16 17 21 25 26 25 24 24 24 24 23 26 27 28 28 27 27 28 28 28 28 27 27 26 25 24 24 24 21 17 15 14 14 15 15 16 17 17 18 20 21 22 23 22 21 20 21 22 23 24 23 22 22 23 22 18 14 12 11 10 9 8 9 8 8 10 12 13 13 13 14 13 13 12 13 15 13 12 10 9 11 11 10 13 14
14 18 24 26 25 23 23 23 24 24 24 26 28 28 27 25 26 28 29 29 29 28 26 23 22 21 19 16 14 13 13 14 15 17 18 20 20 19 18 19 21 23 24 23 21 19 18 19 20 21 21 21 22 22 21 17 12 11 10 10 10 9 9 9 9 9 11 12 13 15 15 15 14 13 14 15 14 12 11 9 12 15 15 17 15
14 18 23 25 24 23 22 22 24 27 29 30 31 30 28 26 26 28 28 29 28 25 21 19 16 13 11 11 12 14 16 17 19 21 22 22 23 22 20 21 22 22 23 23 21 19 18 16 17 16 15 15 17 17 16 12 10 10 9 9 10 10 9 9 9 9 10 11 12 14 16 16 17 17 17 18 16 15 14 9 11 14 15 17 16
16 17 19 22 22 22 22 24 26 28 28 30 31 30 28 27 26 27 28 27 21 17 16 15 15 13 13 14 15 16 17 19 20 21 22 23 25 25 23 22 23 22 22 22 22 21 20 17 16 15 13 11 10 10 9 8 8 9 9 10 10 10 10 11 11 11 10 11 12 13 15 16 18 19 19 19 18 18 17 12 13 16 13 13 17
16 15 17 20 21 24 25 26 28 27 27 30 31 29 27 27 27 28 28 24 18 17 18 17 17 16 16 16 17 18 19 19 20 22 24 26 27 25 23 22 22 22 22 22 21 20 20 19 17 16 16 14 12 10 9 8 8 9 10 11 11 11 11 11 12 12 12 13 14 13 14 16 18 19 19 20 19 19 18 15 13 15 14 14 17
15 13 18 21 21 26 29 28 28 26 28 32 31 28 27 29 28 26 26 24 22 21 21 20 19 18 18 19 19 20 21 22 24 25 25 25 25 23 23 23 22 21 21 21 21 21 20 20 18 17 16 15 13 12 11 10 10 10 11 12 12 12 12 12 12 13 14 16 17 16 15 17 18 19 20 20 20 20 20 19 15 12 12 12 12
14 12 17 21 24 30 29 26 26 26 30 33 32 29 28 29 28 26 26 26 24 23 22 21 20 20 20 21 21 22 24 25 24 24 23 23 23 23 23 22 21 20 19 19 20 21 21 20 19 17 17 15 13 12 12 12 12 12 12 13 13 13 13 14 14 14 15 17 17 17 16 17 18 19 20 20 21 21 21 20 19 15 12 10 9
13 13 19 24 29 31 28 24 26 30 33 34 31 28 28 28 27 26 26 25 24 23 23 22 22 23 23 22 22 23 24 25 23 23 23 22 21 21 20 20 19 18 17 17 17 18 18 18 17 18 18 17 15 14 14 14 13 14 14 15 15 14 15 15 16 16 17 17 17 16 16 18 18 18 20 21 21 22 22 21 21 20 16 11 9
15 17 23 29 29 27 25 25 29 32 32 30 28 26 27 26 25 25 25 24 24 24 24 24 24 24 23 22 23 23 23 24 23 22 22 21 20 20 20 20 19 19 19 19 19 18 19 19 20 20 20 19 17 17 16 16 16 16 17 17 16 16 16 17 17 17 18 17 18 18 17 17 18 18 19 21 21 22 23 23 22 22 21 17 12
15 18 24 29 25 23 26 29 32 31 27 26 27 26 27 26 24 24 25 26 26 25 25 25 24 22 22 22 23 23 23 23 22 21 21 21 21 21 21 21 20 20 20 20 20 20 21 22 22 23 23 21 20 19 18 18 18 18 18 18 18 17 18 18 18 17 18 18 19 19 18 18 18 18 19 21 22 22 23 24 23 23 23 21 20
16 17 23 26 23 24 28 31 31 27 24 26 27 26 26 26 25 25 26 26 26 25 25 25 23 22 23 23 23 23 23 22 21 21 21 22 22 22 22 22 22 22 22 22 23 23 23 24 24 24 24 24 23 22 21 20 21 20 20 20 19 19 19 19 19 18 18 18 19 19 19 18 17 18 20 22 22 23 23 23 23 24 23 22 23
17 19 23 23 23 27 30 30 27 24 24 27 27 26 26 25 24 24 25 26 26 26 25 24 23 23 23 24 24 24 23 22 22 22 22 23 22 22 22 23 23 24 24 24 24 24 24 25 25 25 24 24 23 22 22 21 22 22 21 21 20 20 21 21 20 20 20 19 20 21 20 19 19 19 21 22 22 23 23 23 23 24 24 23 23
18 22 24 23 25 29 30 28 25 24 26 27 26 25 25 24 24 24 25 25 26 26 25 24 24 24 24 24 24 23 23 23 23 23 23 23 23 23 24 24 24 24 23 23 23 23 23 23 23 23 23 23 22 21 21 21 22 23 22 22 21 20 21 21 21 21 21 20 21 22 20 19 19 21 23 23 23 23 22 23 24 24 24 24 23
20 25 23 22 26 29 28 26 24 25 27 27 26 25 25 24 24 24 25 25 25 25 25 24 24 24 24 24 24 23 23 23 23 23 23 23 24 24 24 23 24 23 23 22 22 22 22 22 22 22 21 21 20 20 20 21 21 23 23 23 22 22 22 22 22 23 22 22 21 21 21 19 19 21 23 24 24 25 24 23 24 25 24 23 23
22 24 22 23 28 28 26 26 25 26 27 26 26 25 24 24 24 25 26 25 25 25 24 25 25 25 25 24 23 23 23 23 23 23 23 23 23 23 23 23 23 23 22 22 21 21 21 21 21 21 21 21 21 20 20 21 22 23 23 24 24 25 25 24 23 23 22 23 22 20 19 19 21 22 22 23 24 25 25 24 24 25 24 24 24
21 22 21 25 28 26 25 25 25 26 27 26 26 25 24 24 24 25 25 25 25 25 25 25 25 25 25 24 24 23 23 23 23 23 23 23 23 23 22 22 22 22 22 22 22 21 21 21 21 22 22 22 22 21 21 21 21 21 21 21 21 22 23 25 24 20 18 19 20 19 17 16 19 21 21 23 24 24 25 24 25 25 25 25 24
20 20 20 24 27 25 24 25 25 27 27 26 26 25 25 24 24 25 25 25 26 25 25 26 26 26 25 25 24 24 23 24 23 23 23 23 23 23 22 22 22 22 22 22 21 21 22 22 22 23 23 23 22 22 21 19 18 18 18 18 18 18 19 20 21 18 16 18 20 20 17 16 19 21 21 21 23 24 25 25 25 25 25 24 23
18 18 19 23 25 25 24 25 26 26 26 26 26 25 25 25 25 25 24 25 25 25 26 26 26 26 26 25 25 24 24 24 23 23 23 24 24 23 23 22 21 21 21 21 21 21 21 22 22 22 23 23 22 22 22 21 19 20 20 20 21 21 20 20 19 18 19 21 22 20 18 19 21 24 25 23 22 24 25 25 25 25 24 23 23
16 17 19 21 23 24 24 25 26 26 27 27 26 25 25 25 25 25 25 25 25 25 26 26 26 26 26 26 26 25 25 24 24 24 24 24 23 23 23 22 21 21 21 21 21 21 21 21 21 22 22 22 22 22 23 23 23 23 23 24 24 23 22 23 22 22 22 22 22 21 20 21 24 26 29 28 25 24 26 26 25 25 25 24 24
18 18 18 19 22 23 25 26 26 27 27 27 26 25 25 25 25 25 25 25 25 25 26 26 26 26 26 27 27 26 25 25 25 25 24 24 23 23 22 22 21 21 20 20 20 20 21 21 21 21 21 21 22 22 23 24 25 25 25 29 31 29 26 26 25 25 25 25 26 28 26 24 26 28 29 29 28 27 29 30 27 24 25 25 24
18 19 19 20 23 24 25 26 26 27 27 27 27 27 26 26 25 25 26 26 25 25 26 26 26 26 26 27 27 27 26 26 26 26 24 24 23 22 22 22 21 20 19 20 19 19 19 20 21 21 21 21 21 21 22 24 26 26 26 28 30 30 29 28 28 28 27 27 29 33 32 28 27 28 28 29 29 29 30 32 30 27 27 25 23
18 19 20 22 24 24 25 25 25 26 27 27 27 28 27 26 26 26 27 26 26 25 26 26 26 26 26 27 27 27 27 26 26 26 24 23 22 21 22 22 21 20 19 18 18 18 18 19 19 20 20 20 20 21 23 25 26 26 26 25 25 25 25 26 27 28 29 28 29 30 30 29 28 29 29 29 29 29 28 29 32 33 30 26 23
19 19 20 22 23 24 24 25 25 26 27 27 28 28 28 27 27 27 27 26 26 26 26 26 26 26 26 26 27 27 27 27 26 26 25 24 24 24 23 22 21 20 18 17 17 18 19 19 19 20 21 21 22 23 25 26 26 26 26 25 24 23 23 24 25 26 27 28 28 28 27 27 28 28 27 26 27 29 28 27 30 34 35 32 28
19 19 20 21 22 23 23 24 25 26 26 26 27 28 27 27 28 28 27 27 26 26 26 26 26 26 26 26 26 27 27 27 27 26 26 26 26 26 25 23 23 22 20 20 20 20 20 20 20 21 22 23 24 25 24 24 25 24 24 23 24 24 24 25 24 24 24 25 27 28 26 26 26 26 26 24 25 26 26 25 27 32 36 37 33
17 19 21 22 23 23 23 24 25 26 26 26 26 26 27 27 27 28 27 27 27 26 26 26 26 26 27 26 26 27 27 27 27 27 27 27 27 28 28 27 25 23 22 22 23 22 22 21 21 22 22 23 25 24 22 22 23 22 22 22 23 24 26 27 27 25 24 24 25 26 26 26 25 25 27 27 25 24 24 24 24 28 32 33 32
16 19 22 22 22 23 24 24 25 25 26 26 26 26 27 27 27 27 27 26 27 27 26 26 26 27 27 26 26 26 27 27 28 27 26 27 26 27 29 29 26 23 24 24 24 24 24 24 22 21 22 23 24 22 20 20 21 22 21 22 23 25 26 28 29 28 27 26 25 25 26 26 24 24 27 27 25 24 23 22 23 24 26 27 28
19 21 22 22 22 22 23 24 24 25 26 26 26 27 27 27 27 26 26 26 26 26 26 26 26 27 27 26 26 25 26 28 29 28 26 26 26 27 29 28 25 25 26 26 25 24 24 24 22 20 20 23 24 21 18 18 19 19 19 19 21 24 28 29 29 30 30 29 27 25 24 25 25 25 28 27 24 23 22 22 22 23 23 23 24
21 23 22 22 22 21 23 23 23 24 25 25 26 27 27 27 26 26 26 26 26 26 26 27 27 27 27 26 25 25 26 28 30 29 27 27 28 29 29 27 25 26 28 27 25 22 21 21 21 20 20 22 24 21 17 16 17 17 17 16 16 19 24 29 31 32 31 30 30 28 25 23 24 26 29 29 25 23 24 24 22 22 23 23 22
21 23 22 22 21 21 22 23 23 24 24 25 26 26 26 26 26 26 27 26 26 26 27 28 28 27 27 25 24 25 27 28 29 29 30 30 31 31 29 25 24 27 29 27 22 19 17 17 20 23 22 22 22 20 16 15 15 14 14 14 14 15 17 21 25 28 29 29 32 32 29 25 24 25 27 28 26 25 26 26 23 21 22 21 20
20 22 22 21 22 22 22 22 22 24 24 25 25 25 24 25 25 26 26 25 26 27 28 29 28 27 25 24 24 26 27 27 29 32 33 32 31 31 28 24 23 24 24 21 19 17 18 19 23 26 24 20 20 20 17 14 13 12 12 13 13 13 14 14 15 18 21 25 28 30 30 29 28 26 25 26 27 27 27 27 25 22 20 19 18
20 21 20 21 21 21 21 22 22 24 24 25 24 23 23 24 25 25 25 25 27 28 28 28 26 25 24 24 24 26 27 28 31 33 33 32 29 27 26 25 24 21 17 18 20 19 21 25 28 26 23 20 19 19 17 13 11 11 11 11 11 12 13 13 13 12 13 17 21 24 25 28 29 28 26 26 27 28 28 28 26 22 20 18 17
20 20 20 20 20 19 20 21 22 23 23 23 23 23 23 24 24 24 25 27 27 27 27 26 25 25 25 25 25 27 28 30 32 32 31 30 28 25 25 26 25 21 19 23 25 21 19 23 25 22 20 18 15 14 14 12 9 10 10 10 11 12 12 13 14 13 12 13 15 18 20 23 26 28 28 27 27 30 30 28 24 22 21 18 15
19 19 19 19 20 20 21 22 21 22 22 22 22 23 23 23 24 25 27 27 27 26 25 25 26 27 27 27 28 29 30 31 31 29 27 27 27 26 26 24 22 21 23 25 24 19 17 20 21 18 16 14 11 10 11 11 11 11 11 10 10 11 12 12 13 14 14 13 13 14 15 18 21 25 27 27 28 29 30 27 25 23 20 18 15
19 19 18 18 19 20 21 21 21 21 22 22 22 22 22 23 24 26 26 26 26 26 26 27 27 28 28 29 29 31 32 30 28 27 25 25 25 25 25 21 19 20 21 20 19 19 19 21 21 19 17 15 12 10 10 11 13 13 14 14 14 13 13 12 11 13 14 15 14 13 13 14 17 20 24 27 27 28 29 28 26 25 22 19 18
18 18 18 17 18 19 20 20 20 21 22 21 20 21 22 23 25 26 27 28 28 28 29 30 29 28 28 28 29 30 30 28 26 25 23 23 23 23 22 21 19 18 17 17 19 20 19 20 20 18 18 17 16 15 14 15 16 15 14 15 15 15 15 14 12 12 13 14 14 14 13 13 14 16 21 25 27 28 29 28 27 26 24 21 19
18 18 17 17 17 18 19 19 19 20 20 19 18 20 22 23 25 27 28 29 30 31 31 31 31 29 28 28 29 28 27 25 25 24 21 20 20 20 19 20 20 17 17 18 19 18 18 19 18 16 17 17 16 16 16 17 18 17 16 16 16 15 15 14 13 12 11 12 14 15 15 14 14 14 16 21 25 27 28 28 27 27 26 23 21
18 17 17 17 17 16 17 18 19 19 18 17 17 19 21 23 26 27 29 29 31 32 32 31 31 30 27 26 26 24 22 22 22 21 18 17 18 18 17 18 17 16 17 18 18 17 17 18 18 16 16 16 16 16 17 18 19 19 17 17 16 16 15 14 13 11 11 12 12 12 13 14 14 13 11 13 18 23 27 28 28 27 27 25 23
17 17 17 16 16 15 17 18 19 18 17 16 17 18 20 24 26 27 28 30 30 31 31 31 32 28 24 22 21 21 21 20 18 18 17 17 17 17 16 16 16 16 17 17 17 17 16 16 17 16 15 15 16 16 17 19 20 19 18 16 16 16 16 14 13 11 11 12 13 11 9 10 10 10 9 8 9 14 19 23 27 28 28 27 26
16 16 15 15 15 15 16 17 18 17 16 16 17 19 21 24 26 27 28 29 29 30 31 31 29 24 20 19 18 19 20 18 17 18 18 16 17 17 16 16 15 16 17 17 16 16 17 16 16 15 15 15 15 16 19 21 20 18 17 16 15 16 16 14 13 13 13 13 13 10 7 7 7 8 8 8 7 8 10 13 18 21 23 27 30
16 15 14 14 14 15 15 17 18 16 15 16 18 20 22 24 25 27 28 28 29 31 30 29 25 20 19 19 18 18 18 18 18 19 19 17 17 17 16 17 16 15 16 16 16 16 17 17 16 15 15 15 15 17 20 20 19 17 16 15 15 16 15 14 13 13 11 10 9 7 5 4 5 6 7 8 8 8 9 9 11 11 12 14 19
15 14 14 13 13 14 16 18 18 16 16 18 19 21 23 25 25 27 28 29 30 30 28 26 23 20 20 20 19 19 19 18 18 19 20 21 20 18 16 15 16 17 16 15 16 17 18 18 17 16 15 15 15 18 20 20 19 17 14 14 15 16 15 13 11 9 7 6 6 6 6 5 4 3 4 5 5 7 7 8 9 10 9 9 10
15 14 14 14 14 16 18 19 19 18 18 19 20 22 24 25 27 28 28 29 30 29 26 25 23 21 21 21 19 19 19 17 17 18 19 20 23 24 21 16 16 17 17 15 16 18 19 19 19 19 18 17 17 19 21 21 20 17 14 13 15 16 15 12 9 7 7 8 9 7 7 8 7 6 5 4 2 2 3 5 5 6 9 11 12
Wind_Direction
331 308 297 294 294 300 300 296 294 294 294 291 288 287 289 294 291 292 295 290 294 304 310 319 326 329 332 333 332 331 332 331 332 333 333 332 333 335 332 328 325 321 316 310 307 306 301 297 294 292 287 280 277 273 272 273 274 273 270 266 261 260 260 260 263 269 272 274 275 274 274 274 271 268 266 261 256 256 253 248 245 244 242 240 238
300 294 289 285 283 290 294 296 296 297 298 295 292 290 289 291 289 289 291 289 289 294 300 307 314 318 320 324 322 320 322 320 319 323 325 327 332 335 333 332 331 326 320 310 303 301 297 293 291 288 284 278 274 272 269 269 269 268 268 266 262 259 259 258 256 258 264 268 275 278 276 270 263 260 260 256 251 249 251 249 246 244 244 243 241
304 296 292 290 286 286 288 290 295 297 298 297 296 297 294 289 287 287 284 281 282 283 286 292 301 305 302 304 306 305 307 307 306 309 313 317 324 329 330 331 331 329 325 315 302 296 291 288 286 285 281 275 272 270 266 264 264 263 262 263 264 261 260 257 250 250 259 267 273 272 275 273 254 247 249 250 250 247 242 245 246 245 244 246 246
304 301 299 300 299 299 298 296 301 304 305 307 308 308 307 300 294 292 284 275 273 272 272 277 282 286 287 289 290 290 292 295 297 301 305 312 317 322 324 327 328 327 325 317 304 294 288 283 281 280 277 272 268 266 263 261 259 259 259 258 261 262 259 257 250 247 253 259 267 264 266 275 256 248 253 245 244 246 243 240 245 246 244 244 247
308 312 314 318 319 318 316 312 313 315 315 316 316 314 311 307 302 298 290 278 271 268 268 269 270 272 276 280 284 285 286 288 292 296 303 309 313 315 318 322 324 323 321 315 305 294 288 282 277 274 272 268 263 260 259 258 256 255 256 256 256 256 257 257 253 250 251 250 255 261 267 269 253 272 298 262 229 239 246 242 242 245 242 242 246
323 321 322 324 326 327 328 327 325 322 320 318 316 314 311 309 306 303 298 288 278 272 268 266 264 266 270 276 284 288 289 290 292 295 300 304 306 309 313 316 318 320 318 312 304 294 287 283 278 272 267 263 257 256 255 254 253 251 251 253 253 252 253 255 253 253 257 253 251 254 258 267 276 300 309 278 260 268 264 252 244 243 240 240 243
329 325 324 328 335 338 336 332 327 322 322 321 320 319 316 313 311 308 305 299 290 282 274 266 261 265 269 271 276 279 280 283 285 288 292 295 298 301 306 310 312 315 315 309 301 294 288 283 279 273 266 258 253 251 250 248 248 247 245 245 249 252 249 250 252 254 258 256 252 252 253 257 265 273 271 268 282 275 263 259 253 250 244 240 239
328 326 333 341 343 340 335 332 331 329 331 332 331 328 324 320 316 313 309 305 299 292 283 272 263 267 273 274 275 276 277 280 282 283 286 290 294 297 301 305 307 310 312 308 297 291 290 285 280 273 265 257 249 245 245 243 239 237 236 237 243 247 244 246 251 251 252 255 256 255 254 254 254 254 253 254 268 269 265 269 268 264 253 245 243
325 334 345 345 341 338 338 339 339 339 341 341 338 334 331 328 325 324 321 315 308 301 293 281 272 272 277 280 280 281 282 284 286 286 287 290 293 297 301 304 304 306 309 306 295 289 289 285 279 273 265 256 246 242 240 234 227 226 229 233 236 238 240 244 247 248 249 251 255 257 257 257 254 252 250 248 252 260 263 266 266 267 260 252 247
331 344 345 340 339 340 339 339 340 342 345 346 342 338 337 336 334 334 333 330 324 316 306 292 283 280 281 284 284 286 291 293 293 293 295 296 296 298 301 302 304 305 307 304 293 288 290 289 282 272 265 257 246 241 235 226 220 222 227 230 231 236 241 240 240 245 250 250 250 253 255 255 252 249 245 243 245 252 256 260 263 264 268 265 252
342 343 336 335 337 337 337 339 342 342 338 338 335 331 329 329 329 330 330 330 329 326 320 310 301 295 295 299 299 302 308 308 305 303 303 302 300 301 301 300 301 302 304 300 289 282 286 295 295 282 268 257 246 238 232 224 217 214 218 225 231 236 239 239 240 243 248 251 249 249 251 251 251 251 247 244 242 246 250 256 258 256 260 266 263
343 335 332 334 336 337 339 342 342 337 333 333 332 327 324 322 324 325 325 324 323 327 332 332 332 332 332 332 321 316 315 311 308 306 305 304 301 302 302 301 299 297 298 294 285 278 277 289 301 299 285 262 244 237 232 224 215 213 217 224 231 236 240 244 247 244 244 250 250 249 249 249 250 251 253 253 252 252 252 254 255 255 255 257 259
337 333 335 337 339 341 341 340 339 337 337 338 336 332 330 330 330 330 328 327 329 340 349 348 347 344 338 332 324 319 315 311 308 306 305 304 301 300 299 298 295 293 291 284 279 275 272 278 287 290 291 280 262 253 247 237 228 227 228 230 234 239 245 249 250 249 249 251 255 254 252 251 249 249 250 254 258 260 258 257 258 259 259 259 258
334 336 339 338 341 341 338 338 339 341 343 343 338 334 336 336 335 335 335 338 347 354 352 346 342 336 330 327 322 318 313 310 308 305 304 301 298 296 294 293 290 288 286 280 276 271 269 275 278 277 279 281 281 281 274 263 251 244 240 238 240 242 247 251 252 254 255 256 258 258 256 254 251 250 249 250 253 257 258 258 259 258 259 262 261
336 340 339 338 342 339 335 337 340 342 343 341 337 333 336 334 332 332 335 339 344 344 341 337 333 328 324 321 318 314 311 309 306 303 301 298 296 294 293 291 289 286 284 278 274 271 272 276 275 273 275 276 279 282 282 277 266 257 251 246 246 246 247 251 254 257 257 259 259 257 257 257 255 252 249 247 247 250 254 258 260 260 257 258 260
340 345 341 339 339 335 335 337 340 340 338 337 334 332 333 332 331 332 332 332 333 333 334 332 329 326 323 319 315 312 309 307 305 303 302 300 297 296 294 292 289 286 284 281 278 274 272 274 273 270 271 275 281 284 282 279 273 265 259 253 251 248 250 253 256 257 256 258 257 252 251 254 255 252 249 247 246 246 249 255 257 257 256 257 259
344 346 342 338 334 334 337 339 338 337 334 333 332 332 333 332 332 333 333 333 333 333 334 332 329 325 320 316 313 312 310 308 307 305 305 303 300 298 297 294 289 285 285 286 286 281 274 274 276 274 273 278 284 285 283 280 275 269 262 258 254 251 253 255 255 256 255 256 254 249 247 250 253 252 249 247 245 244 244 248 252 252 251 252 258
342 342 341 338 335 338 343 341 336 334 334 335 336 336 335 333 334 336 337 337 335 333 331 328 325 322 319 317 316 316 315 313 311 308 306 304 302 300 298 294 290 288 287 286 286 284 279 278 280 280 279 282 283 282 282 279 274 270 263 259 256 253 254 255 254 253 253 253 252 249 247 249 251 249 248 246 243 243 243 243 247 249 249 249 252
338 339 341 341 342 345 343 338 334 333 335 339 339 337 335 333 333 334 335 334 332 330 329 327 326 324 322 321 320 319 317 314 312 308 305 303 302 300 298 294 291 289 288 287 286 284 281 281 281 280 280 281 282 280 280 278 273 269 264 261 257 254 253 253 252 250 249 249 249 248 247 248 249 248 248 246 242 240 239 239 242 245 248 249 249
338 339 339 340 344 343 339 338 337 336 337 339 338 336 335 333 331 331 331 332 332 332 331 330 328 327 325 324 322 320 317 314 311 309 306 304 302 300 297 293 290 288 285 284 284 282 281 280 279 279 278 278 279 278 276 274 270 266 263 261 258 255 253 252 251 248 246 244 243 245 246 248 249 249 248 246 243 240 237 236 238 241 244 246 246
340 340 337 338 340 339 338 339 340 341 341 340 338 337 336 334 333 332 332 332 333 332 331 329 328 326 324 323 322 319 317 314 311 308 304 302 300 299 297 295 291 288 286 284 282 280 279 277 276 276 276 276 276 275 273 270 266 263 261 261 258 256 254 252 251 248 245 241 241 244 245 246 247 247 247 246 244 242 238 237 237 237 238 240 241
340 340 338 337 337 338 339 339 340 342 342 341 340 338 337 335 334 334 333 333 332 331 330 328 326 325 323 322 321 319 316 313 310 307 303 299 298 298 297 296 292 289 287 284 282 280 278 276 275 274 273 273 272 271 269 266 263 261 260 259 257 255 255 253 252 251 247 244 245 246 246 245 245 245 245 244 244 243 241 238 238 236 235 234 234
340 340 339 337 336 337 339 339 340 342 341 341 340 338 336 333 333 333 333 332 331 330 329 327 325 323 323 322 320 318 317 314 312 309 305 302 300 298 297 294 292 290 288 285 282 280 278 276 274 273 270 269 269 268 267 264 262 261 259 257 254 253 254 254 254 254 251 248 248 248 248 248 247 246 245 243 243 244 242 240 238 237 235 234 232
341 340 337 337 338 338 338 339 340 341 341 340 338 337 335 332 332 333 331 331 331 330 328 327 325 323 322 322 321 320 318 316 314 311 308 306 303 300 298 294 292 289 287 286 283 280 278 275 273 271 269 269 269 268 267 265 262 260 258 256 254 253 252 253 255 256 251 246 244 246 249 249 247 247 246 244 241 240 241 240 239 238 236 236 235
342 339 336 338 339 339 339 338 339 340 340 338 336 335 333 332 333 333 331 331 331 329 328 327 325 323 323 322 321 320 318 316 315 312 310 308 306 303 300 296 293 290 288 285 283 279 276 274 272 270 269 269 269 267 268 267 261 256 255 254 253 252 253 250 248 251 251 244 242 248 255 256 253 251 247 244 242 240 239 237 238 238 235 235 235
341 338 337 338 339 338 337 337 338 339 339 337 334 333 333 332 332 332 331 330 330 329 328 326 325 323 322 322 321 319 317 316 314 313 312 310 308 305 302 299 295 292 289 285 282 279 276 274 271 270 269 269 267 265 267 268 261 253 253 257 259 261 264 259 252 254 259 255 251 253 256 256 258 261 258 250 243 241 240 237 236 236 234 233 232
339 338 336 336 337 336 335 336 336 336 337 336 333 331 332 331 331 331 331 330 329 328 327 326 325 323 322 321 321 319 317 315 314 313 311 310 308 306 303 301 297 294 290 286 283 279 275 273 271 270 268 267 265 262 261 263 259 254 254 260 264 265 267 268 266 264 262 258 257 258 257 255 257 262 265 262 252 244 241 238 236 235 233 232 229
338 338 337 335 335 335 335 335 334 334 335 335 332 331 331 330 330 330 330 329 328 327 326 325 324 323 321 320 320 318 317 315 313 312 310 308 307 305 303 300 297 294 290 286 283 279 276 273 270 268 266 264 263 260 257 256 255 255 255 258 261 262 262 265 265 263 259 256 257 258 257 257 259 261 264 267 264 253 245 240 237 234 232 231 229
339 338 337 335 334 333 334 335 333 333 334 333 332 331 330 329 329 329 328 328 328 326 325 325 324 322 321 321 319 318 316 314 313 312 310 308 306 304 302 299 295 292 288 285 282 279 276 272 269 267 265 262 260 257 254 252 252 252 253 257 259 258 259 260 259 258 257 256 259 261 260 259 261 262 262 265 266 262 252 243 238 233 230 229 227
339 338 336 335 333 332 333 333 332 331 332 332 332 331 329 328 328 328 327 327 327 326 325 324 323 321 321 320 319 318 316 315 314 313 311 309 306 304 301 298 295 290 286 283 280 277 274 271 269 266 263 260 258 254 252 250 249 247 248 253 255 254 254 254 254 255 255 255 258 261 261 259 258 260 261 263 266 268 262 247 238 236 232 226 222
337 336 335 334 332 332 332 332 330 330 331 331 331 329 328 326 326 326 326 326 327 325 324 323 321 320 320 320 319 318 317 316 315 314 312 310 307 305 302 299 296 292 288 284 280 275 272 270 267 264 261 258 255 253 253 252 251 249 248 247 248 249 249 248 247 249 249 251 254 257 257 257 257 258 261 263 264 267 267 254 243 239 233 225 222
334 334 334 333 331 331 330 329 328 329 330 330 329 328 327 326 326 325 324 325 325 324 322 322 321 320 321 320 319 318 316 315 314 313 312 311 310 307 304 302 299 297 294 289 284 279 275 272 268 263 260 258 257 257 256 255 255 253 250 247 244 243 245 245 244 243 243 245 246 250 252 252 253 254 256 260 263 266 267 259 249 241 234 231 230
331 332 333 331 329 328 326 326 327 328 329 328 327 326 325 324 324 323 323 324 324 323 322 321 321 321 321 320 319 318 316 314 313 313 312 312 312 311 309 307 306 304 299 294 292 288 282 279 275 270 267 265 267 269 264 260 260 258 254 250 244 239 239 242 243 242 241 240 241 244 246 247 249 250 251 255 261 265 265 259 251 243 238 236 235
329 331 331 329 327 325 323 324 326 327 327 326 326 325 323 322 322 322 323 323 323 323 322 321 321 321 320 320 319 318 316 314 312 313 312 311 312 313 315 316 313 309 306 304 303 301 295 292 289 284 282 279 280 283 277 266 263 260 256 251 246 240 237 237 239 240 240 239 238 239 242 244 245 245 247 251 254 258 261 258 250 243 237 235 235
331 330 329 327 324 322 322 323 325 326 326 326 326 325 323 323 323 323 323 323 322 322 321 321 321 320 320 320 319 318 317 315 314 313 312 312 312 312 317 320 316 312 312 312 311 310 307 305 301 295 291 291 293 296 288 272 265 261 257 253 247 241 237 235 235 236 236 238 239 238 240 241 241 241 245 248 247 251 256 255 248 242 236 234 234
331 328 327 325 322 319 320 322 323 324 325 326 326 326 324 322 322 323 322 323 322 321 321 322 321 320 319 319 319 318 317 316 316 315 314 314 313 313 318 321 317 316 317 316 315 313 312 311 310 302 295 296 303 307 295 279 271 266 264 259 250 242 237 236 236 236 234 234 235 236 238 239 238 239 243 244 242 246 253 250 243 237 234 234 235
329 327 324 322 319 318 319 320 321 322 324 326 326 326 324 321 321 323 323 323 323 322 322 321 320 319 318 318 318 316 316 317 317 316 315 316 317 317 319 321 319 319 321 321 318 315 313 312 310 307 300 298 306 316 308 289 280 276 273 271 264 252 242 238 240 241 239 235 235 235 235 236 237 238 241 241 237 240 248 247 238 231 230 231 233
327 326 324 321 319 319 320 319 320 322 324 326 325 325 323 321 322 323 323 323 323 322 322 321 319 317 316 317 316 315 316 316 316 316 318 320 322 322 322 322 320 319 320 322 320 315 311 310 310 314 313 304 305 317 320 304 292 285 279 275 272 270 259 246 243 244 241 240 242 240 234 231 235 238 239 237 232 234 244 245 236 226 224 226 228
327 326 324 321 320 319 319 320 321 323 326 327 325 324 322 321 322 323 322 323 323 322 322 320 317 316 315 315 315 315 316 315 317 320 323 323 324 324 323 320 317 316 317 317 317 314 313 317 320 323 325 317 312 319 325 318 306 296 286 278 272 273 273 263 252 245 240 240 243 242 235 230 233 236 237 234 229 230 239 244 237 224 216 219 222
327 326 323 321 321 319 319 322 323 323 325 326 325 324 322 321 322 321 321 322 322 321 320 318 316 316 315 315 315 315 316 318 321 324 326 326 323 320 320 321 319 316 311 312 317 316 315 324 331 332 332 331 326 327 334 333 319 302 293 288 281 277 278 277 272 258 244 239 241 241 238 234 233 235 236 235 230 228 234 242 237 219 210 216 221
326 325 323 321 320 319 319 320 321 322 324 326 325 324 322 322 322 321 321 322 320 319 318 318 317 316 315 315 316 316 319 323 327 328 327 327 325 320 321 324 322 318 316 320 324 320 313 323 333 332 333 338 340 344 353 357 340 314 301 292 282 274 272 274 277 273 263 250 240 239 243 242 237 234 235 235 232 228 231 239 237 220 210 215 220
326 325 324 321 318 318 319 320 322 324 325 326 325 323 322 322 322 322 322 322 320 319 319 319 318 317 316 316 318 322 325 328 332 333 326 323 326 328 328 326 321 321 323 324 326 324 320 326 334 336 339 346 351 356 3 8 1 347 338 327 310 294 280 270 269 272 271 264 251 243 247 251 245 238 234 233 232 229 228 233 238 232 223 220 223
326 324 324 321 316 316 317 319 322 325 326 326 325 322 322 322 321 322 323 322 321 321 321 320 318 318 317 317 321 327 331 331 333 332 325 320 326 331 331 328 323 322 323 325 329 332 333 336 340 346 353 359 2 2 3 2 358 355 354 351 346 338 324 303 282 272 270 270 266 255 250 255 254 245 237 232 231 229 226 227 232 234 231 228 230
321 320 321 319 315 313 314 316 320 324 325 326 325 321 321 321 321 323 324 323 323 323 321 320 319 318 317 319 323 329 332 332 332 329 324 322 324 326 327 327 325 323 326 332 336 337 339 341 341 344 351 357 1 3 4 -0 353 347 345 346 345 344 339 331 314 292 276 271 269 263 257 259 260 253 243 236 230 228 226 224 226 230 232 232 233
316 315 317 316 312 310 312 314 319 324 324 324 324 322 320 320 321 324 325 325 325 323 320 320 319 319 319 321 325 328 330 331 331 327 321 320 322 323 324 324 325 330 336 338 340 340 341 341 340 343 348 351 353 356 357 355 352 346 342 340 339 336 335 333 324 309 297 288 278 267 261 261 261 260 253 241 231 227 225 224 223 226 230 232 233
314 312 313 314 311 311 312 314 319 324 325 324 324 323 320 320 322 325 326 325 324 322 321 320 320 319 319 320 322 325 325 325 327 326 322 319 321 322 320 319 326 338 339 336 338 341 341 340 338 342 347 346 347 351 352 351 350 346 342 340 338 335 332 330 325 316 313 313 301 280 266 258 253 255 259 247 231 223 222 222 222 224 228 230 231
310 309 311 312 311 311 314 315 317 321 323 324 323 322 321 322 324 325 326 326 324 322 322 321 320 319 319 318 320 322 321 322 325 325 323 321 323 324 324 324 333 340 336 334 339 342 341 340 338 340 345 346 345 348 350 349 347 344 342 342 341 337 333 329 325 320 317 319 317 303 279 261 251 249 254 256 240 223 217 218 220 223 227 229 228
307 308 309 310 308 309 312 313 314 317 320 321 321 322 324 325 326 328 328 327 326 325 323 321 320 318 319 319 320 321 322 323 324 324 322 321 323 327 329 330 335 337 333 335 342 342 340 343 342 342 346 348 347 350 350 347 343 342 344 345 344 342 337 329 323 320 315 315 318 313 289 265 258 253 247 245 240 224 213 212 215 219 224 226 227
304 305 306 306 307 308 309 310 311 314 318 320 320 323 328 330 330 331 331 329 329 328 325 323 323 322 322 322 322 322 322 323 323 324 323 319 318 322 325 327 333 337 338 341 347 346 344 347 348 348 348 350 350 349 346 343 344 348 351 351 350 348 343 333 324 318 314 316 322 327 317 283 263 253 243 233 227 223 220 215 213 217 221 222 225
302 305 304 304 306 307 307 310 313 316 319 319 319 324 333 336 336 336 335 333 332 331 328 326 327 326 325 325 324 322 323 323 323 325 327 326 325 328 331 331 334 339 343 350 355 354 353 356 358 355 353 353 353 349 347 349 353 356 357 359 359 357 353 349 341 330 330 345 348 347 353 353 332 293 260 242 230 227 227 227 225 226 229 232 234
302 305 305 306 309 311 311 314 317 320 320 319 319 327 337 341 342 342 339 336 335 334 330 328 328 326 325 325 323 321 322 323 324 327 330 331 332 334 337 341 343 344 346 351 357 359 360 3 6 2 357 356 356 355 355 358 0 2 4 6 8 8 6 5 10 19 28 26 15 4 4 5 2 1 4 358 336 283 252 243 239 232 231 235 238
Height
891 890 888 886 883 881 879 877 875 872 871 869 867 865 863 862 861 859 858 856 855 853 851 849 847 844 843 841 840 838 837 836 835 834 834 833 832 831 830 829 828 826 825 823 822 820 818 816 814 813 812 811 810 809 809 809 810 810 810 809 809 809 809 809 809 809 808 807 805 804 802 802 802 802 802 802 802 802 803 804 806 806 808 809 811
889 888 886 884 881 878 877 874 873 871 868 867 865 863 861 860 859 857 856 854 853 851 849 847 845 843 841 840 839 837 836 835 833 833 832 831 830 829 828 827 826 825 823 822 820 819 817 815 813 812 811 810 809 808 807 807 807 808 808 807 807 807 806 807 807 808 806 805 803 801 800 799 799 799 799 799 799 800 800 801 802 803 804 805 807
886 885 882 880 878 875 874 871 870 868 866 865 862 861 859 857 856 854 853 852 850 849 847 845 843 841 840 838 837 836 834 833 832 831 830 829 828 827 827 825 824 822 821 820 819 817 816 814 812 810 809 808 807 806 805 805 805 806 806 805 805 805 804 805 805 805 804 803 802 801 799 797 795 794 794 795 796 797 798 798 799 800 801 803 804
884 882 879 876 875 873 872 869 868 866 864 863 861 859 857 855 853 851 850 848 847 846 844 842 841 839 837 836 835 833 832 831 830 829 828 828 827 826 825 823 822 820 819 818 817 815 814 812 810 809 807 806 805 804 803 803 803 803 804 804 804 803 803 803 803 803 803 802 801 799 797 796 794 792 791 791 792 794 794 795 796 797 799 800 801
882 879 877 875 873 871 870 869 867 865 863 861 859 857 855 852 851 849 847 846 844 843 841 840 838 836 835 833 832 831 830 829 828 827 826 826 825 824 823 821 820 818 817 816 815 813 812 810 809 807 805 804 803 802 801 801 801 801 801 802 802 802 802 801 801 801 801 801 800 799 797 796 794 791 791 791 791 792 793 793 794 794 796 797 798
882 879 877 874 872 869 868 867 866 864 862 860 858 855 853 850 849 847 845 843 841 840 838 837 836 834 833 831 830 829 828 827 826 825 825 824 823 822 821 820 818 816 815 814 813 811 810 808 807 805 803 802 801 800 799 798 798 798 799 800 800 800 801 800 800 800 800 800 799 799 798 796 794 793 795 794 791 791 792 792 792 792 794 795 795
880 877 875 873 871 870 868 867 866 863 861 859 856 854 852 849 847 845 843 841 839 838 836 835 833 832 831 829 828 827 826 825 824 823 823 822 821 820 819 818 816 814 813 812 811 809 808 806 805 803 801 800 799 797 797 796 795 796 796 797 798 799 799 799 798 799 798 798 798 797 797 797 796 796 796 795 793 791 790 791 791 791 792 793 793
878 875 874 873 873 871 869 868 865 863 861 859 857 854 852 849 846 844 842 839 837 836 834 833 831 829 828 828 827 825 824 823 822 822 820 820 818 817 817 815 814 812 811 809 808 807 806 804 802 801 799 797 796 795 794 793 793 793 794 795 796 797 797 797 797 797 797 796 796 796 795 795 796 796 796 796 795 792 790 790 790 790 791 791 791
878 875 875 875 874 872 870 868 866 864 862 860 858 855 852 849 846 844 841 838 836 834 832 830 829 827 826 825 824 823 822 821 820 819 818 817 816 814 813 812 810 809 808 807 806 804 803 802 800 798 796 794 793 792 791 790 790 790 791 792 794 794 795 795 795 795 795 795 795 795 795 794 794 794 794 794 794 793 790 788 788 788 788 788 788
878 877 877 875 873 872 870 869 867 865 864 862 859 857 854 851 848 845 842 839 836 833 830 828 827 826 824 823 822 821 821 820 819 817 816 815 813 811 810 808 807 805 804 804 803 802 801 799 797 795 793 792 790 789 788 788 786 786 788 789 791 792 793 793 793 793 793 793 794 794 793 793 792 791 792 792 792 792 789 787 787 787 786 785 785
878 878 877 875 873 872 870 868 867 866 864 861 859 856 853 851 848 845 842 839 835 832 830 827 826 824 823 822 821 821 820 818 817 815 814 813 811 809 807 805 804 802 801 800 800 799 798 796 795 792 790 789 787 786 786 785 783 783 785 787 788 789 790 790 791 791 792 792 792 792 792 791 791 789 789 789 788 788 787 786 785 786 785 783 783
880 878 876 874 872 871 869 868 866 865 863 860 858 855 852 848 846 843 840 838 835 832 830 828 826 825 823 823 822 820 819 817 816 814 812 811 808 807 805 803 802 800 798 797 796 796 795 794 793 791 789 787 785 785 784 782 781 781 782 784 785 786 787 788 788 788 789 789 790 790 790 789 789 789 788 787 786 785 784 783 782 783 782 781 781
880 878 875 874 872 870 870 868 867 865 862 861 858 854 851 847 845 842 838 836 834 831 830 828 827 826 825 824 822 820 819 817 815 813 811 809 807 805 803 801 799 797 795 794 793 793 792 791 791 790 788 787 785 784 782 780 779 779 780 781 783 784 784 785 785 786 786 787 787 787 787 787 786 787 787 786 785 784 783 781 780 781 780 778 779
881 878 876 875 873 872 870 869 867 865 863 861 858 854 851 848 845 842 839 836 834 832 831 829 828 827 825 824 822 820 819 817 814 812 810 808 806 803 801 799 796 794 793 791 790 790 789 788 788 788 787 786 784 782 780 778 777 777 778 779 780 781 782 782 782 783 783 784 784 784 784 784 784 784 784 784 784 784 783 781 780 779 779 778 777
881 879 878 876 875 874 871 870 868 866 864 862 859 855 852 850 846 843 840 837 835 833 832 830 828 826 825 823 821 819 817 815 813 811 808 806 804 801 799 797 794 792 790 789 788 787 786 786 785 784 784 783 782 780 778 777 776 776 776 776 777 778 779 779 780 780 780 781 781 782 782 781 781 781 781 781 782 782 782 781 780 778 777 776 775
881 881 879 877 877 875 872 871 869 867 865 862 859 855 852 850 847 844 841 838 836 834 831 830 828 825 824 822 820 818 816 813 810 808 806 803 801 799 796 794 792 790 788 787 786 784 783 782 782 781 781 781 779 778 776 775 774 774 774 774 774 775 775 776 777 777 777 778 778 778 779 778 778 778 779 778 779 779 779 780 779 778 776 775 773
882 882 881 879 877 875 872 872 870 867 865 861 859 856 853 850 847 844 841 838 835 833 831 829 827 825 822 820 818 816 813 811 808 805 803 801 799 796 794 792 790 788 787 785 784 782 781 780 779 778 778 777 776 775 774 773 772 772 771 771 771 772 772 773 773 774 774 775 775 775 775 775 775 776 776 776 776 776 776 777 777 777 776 774 772
883 883 882 880 878 876 874 873 871 868 865 862 858 856 853 850 847 844 841 838 836 833 831 829 826 824 821 818 816 814 811 809 806 803 801 799 797 795 792 790 788 787 785 784 782 781 779 778 777 776 774 773 772 772 771 770 770 769 769 769 768 769 769 769 770 770 771 772 772 772 772 772 772 773 773 773 773 773 773 774 774 774 774 772 771
883 882 882 881 878 877 876 873 871 868 865 862 859 856 854 850 847 844 841 839 836 833 831 828 825 823 820 817 815 812 810 807 804 802 799 797 795 793 791 789 787 786 784 782 780 779 777 776 774 772 771 770 769 768 768 767 767 766 766 766 766 766 766 766 766 767 767 768 768 768 769 769 769 770 770 770 769 769 770 770 771 771 771 770 769
884 883 883 881 879 878 877 874 871 867 865 863 860 856 853 850 847 844 841 838 836 833 830 827 824 822 819 816 813 811 808 805 803 800 798 796 794 791 789 787 785 783 782 780 778 776 775 773 772 770 768 767 765 764 764 764 764 763 763 762 762 763 763 762 763 763 764 764 764 765 765 765 766 766 767 766 766 766 766 766 767 768 768 767 767
885 885 883 881 880 879 877 875 871 868 865 863 860 856 853 850 847 844 841 838 835 832 829 826 823 820 818 815 812 809 807 804 801 799 797 794 792 789 787 785 783 781 779 777 775 773 772 770 768 767 765 763 762 761 761 760 760 759 759 759 758 759 759 759 759 760 760 761 761 761 761 762 763 763 763 763 762 762 763 763 763 764 764 764 764
887 886 883 882 881 879 876 874 871 868 866 862 859 856 852 850 846 843 841 838 835 832 829 826 823 820 817 814 811 808 805 803 800 797 795 792 790 787 785 783 780 778 776 774 772 770 768 767 765 763 762 761 759 758 757 757 756 755 755 755 755 755 755 755 755 755 755 756 756 757 758 758 759 759 759 759 759 759 759 759 759 760 759 759 760
888 886 884 883 881 879 876 874 871 868 866 862 859 856 853 849 846 843 840 837 835 831 828 825 822 819 816 813 810 807 804 801 798 795 793 790 788 785 783 780 778 775 773 771 769 767 765 764 762 760 759 758 757 755 755 754 753 753 752 752 751 751 751 751 751 750 751 752 752 752 753 754 755 755 755 756 756 756 756 755 755 756 755 755 756
888 887 885 884 882 880 876 873 871 868 865 862 859 856 853 849 846 843 840 837 834 830 828 824 821 818 815 812 809 805 802 799 797 794 791 788 785 783 780 778 775 772 770 768 766 764 763 761 759 758 756 755 754 753 752 751 751 750 749 749 749 748 748 748 748 748 747 748 748 749 749 750 751 751 751 752 752 752 752 752 751 752 752 752 752
888 887 885 884 882 879 876 874 871 868 865 862 859 856 852 849 846 843 839 836 833 830 826 823 820 817 813 810 807 804 801 798 795 792 789 786 783 780 778 775 772 770 767 765 764 762 760 758 756 755 754 752 751 750 750 749 748 747 747 746 746 746 746 745 745 745 745 745 745 746 746 747 748 748 748 748 748 748 749 748 748 748 749 749 749
889 887 885 884 881 879 877 874 871 869 866 862 858 855 852 848 845 842 838 835 832 829 825 822 819 815 812 809 806 802 800 796 793 790 787 784 781 778 775 772 770 767 765 763 761 759 757 755 753 752 751 749 749 748 747 746 745 745 745 744 744 743 743 743 743 742 742 742 743 743 744 745 745 744 744 745 745 745 745 745 744 745 745 746 746
890 887 886 884 881 878 877 874 871 869 866 862 859 854 851 848 844 841 838 835 831 828 824 821 817 814 810 807 804 801 798 795 792 789 785 782 779 776 773 770 767 765 762 760 758 756 754 752 751 749 748 746 745 744 744 743 743 742 742 742 741 741 741 740 740 740 740 740 740 741 741 741 741 741 741 741 741 741 741 740 741 741 742 743 743
890 888 886 884 880 878 876 873 871 868 865 862 858 854 851 847 843 840 837 834 830 827 823 820 816 813 809 806 802 799 796 793 790 787 784 780 777 774 770 767 765 762 759 757 755 753 751 749 747 746 744 743 742 741 740 740 739 739 739 739 738 738 738 738 737 737 738 738 737 737 738 738 738 738 738 738 738 738 738 737 737 738 739 739 739
889 887 886 883 880 878 875 873 870 867 864 861 857 853 850 846 843 840 836 833 830 826 822 819 815 812 808 805 801 798 794 791 788 784 781 778 775 771 768 765 762 759 756 754 752 749 747 745 744 742 741 740 738 737 736 735 735 735 734 734 735 735 735 734 734 734 734 734 734 734 734 734 734 734 734 735 734 734 734 733 733 734 735 735 735
887 886 885 883 880 878 875 873 870 866 863 859 856 852 849 845 842 838 835 832 828 825 821 818 814 811 807 803 800 796 792 789 786 782 779 775 772 768 765 762 759 756 753 751 748 746 744 742 740 739 737 736 734 733 731 731 731 730 730 730 730 730 731 730 730 730 729 730 729 729 730 730 730 730 730 730 730 730 729 729 730 730 731 732 732
887 885 883 881 879 877 874 872 869 866 862 859 855 852 848 844 841 838 834 831 827 824 820 817 813 809 806 802 798 795 791 787 784 780 776 772 769 765 762 758 755 753 750 748 745 743 741 738 737 735 733 732 730 728 726 726 726 725 726 726 725 725 726 725 725 725 724 725 725 725 725 726 726 726 726 726 726 725 724 724 725 726 727 728 728
886 884 882 880 878 876 873 871 868 865 862 858 855 851 847 844 840 837 833 829 826 823 819 815 812 808 805 801 797 793 789 785 781 777 773 770 766 762 759 755 752 749 746 744 742 739 737 735 733 731 729 727 725 723 722 721 721 721 721 721 721 721 721 720 720 719 719 720 720 721 721 721 721 721 722 722 722 721 721 721 721 722 723 724 725
885 883 882 879 877 875 873 870 867 864 861 858 855 851 847 843 840 836 832 828 825 822 818 814 810 807 803 799 795 791 787 783 779 775 771 767 763 759 756 752 749 746 743 740 738 735 733 731 729 727 725 722 720 718 717 717 716 716 716 717 716 716 716 715 715 715 715 715 715 716 716 716 716 717 718 719 718 718 717 717 717 718 719 720 721
885 883 881 879 877 875 872 869 866 863 861 857 854 851 847 843 839 835 831 828 824 820 817 812 809 805 801 798 794 790 785 781 777 773 769 765 761 757 753 750 746 743 740 737 734 731 729 727 725 723 720 718 715 713 713 712 712 712 712 712 712 711 710 710 710 710 710 710 710 710 711 711 711 712 713 714 715 715 714 714 714 714 715 716 717
885 883 880 879 877 874 871 868 865 862 859 856 853 850 846 842 839 835 830 827 823 819 815 811 807 804 800 796 792 788 783 779 774 771 767 763 759 755 751 747 744 741 737 734 731 728 725 722 721 719 717 714 711 709 709 708 708 708 708 708 707 707 706 705 704 705 705 705 705 706 705 706 707 707 707 710 712 712 711 711 711 711 711 712 713
885 882 880 878 876 874 871 868 865 862 858 855 852 849 845 841 838 834 830 826 823 818 814 810 806 802 798 794 790 786 781 777 772 768 765 761 757 754 749 746 742 739 735 732 728 725 722 719 717 716 714 711 708 706 706 705 705 704 704 704 703 702 701 700 699 699 699 699 700 701 701 701 702 702 702 705 707 708 708 708 708 708 708 709 709
884 881 880 878 875 873 870 866 864 861 858 855 851 848 844 840 836 833 829 825 822 818 813 809 805 800 796 792 788 784 780 775 770 766 763 759 755 751 748 744 741 737 733 730 726 723 720 717 715 713 711 708 705 703 702 702 701 701 701 700 699 697 696 695 694 694 694 694 695 696 696 697 697 697 697 700 703 704 705 705 704 705 705 706 706
883 880 878 877 874 871 869 866 863 860 857 854 851 847 843 839 835 832 828 825 821 817 813 808 804 799 795 791 787 783 779 774 770 765 761 758 754 749 746 743 740 736 732 728 725 722 718 716 713 710 708 706 703 700 700 699 698 698 698 697 696 694 693 691 690 690 690 690 690 690 691 693 692 692 693 695 698 700 701 701 701 701 702 702 703
882 879 877 875 872 870 867 865 862 858 856 853 849 846 843 839 835 831 827 824 820 816 812 807 803 798 794 790 786 782 778 774 769 764 760 756 752 748 744 742 739 736 731 728 724 720 716 713 710 707 705 703 701 698 697 697 696 695 695 694 693 692 690 689 688 687 686 686 686 686 687 688 688 688 690 691 693 696 697 697 697 698 698 699 700
880 878 876 873 871 869 865 863 860 857 854 851 848 845 842 838 835 831 827 823 819 815 811 806 802 797 793 789 785 781 776 772 768 763 758 754 751 748 744 740 738 734 731 727 723 720 715 711 708 705 703 701 699 697 695 695 694 693 693 692 691 690 688 687 686 685 684 683 683 683 683 683 684 685 686 687 688 691 693 693 694 694 694 695 697
878 877 875 872 870 867 864 862 859 856 853 850 847 844 840 837 834 830 826 823 818 814 810 805 801 796 791 787 783 779 775 771 766 762 757 753 750 747 743 740 736 733 730 726 722 718 714 710 706 704 702 700 699 697 695 694 693 692 691 690 689 688 687 686 684 683 682 681 680 680 679 679 680 681 682 683 684 686 688 690 690 690 691 693 695
877 875 874 871 868 866 863 861 858 855 852 849 846 843 839 836 832 829 825 821 817 813 808 804 800 795 790 785 781 777 773 768 764 760 756 753 749 746 742 739 735 732 728 724 720 717 714 710 707 704 702 700 699 697 695 694 692 691 690 689 687 686 684 683 682 681 680 678 677 677 676 676 676 677 678 679 680 682 684 686 687 688 689 691 693
875 874 872 870 867 864 861 859 856 854 851 848 845 842 838 835 831 827 823 819 815 811 807 803 798 793 788 784 779 775 771 767 763 759 756 752 748 745 741 738 735 731 727 724 720 717 714 710 707 704 702 700 699 697 695 694 692 691 689 688 686 684 682 681 680 678 677 676 675 675 674 674 674 674 675 676 677 678 680 682 684 686 687 689 691
874 872 870 869 866 863 860 857 855 852 849 847 844 841 837 834 830 826 822 818 814 810 805 801 796 791 787 782 778 774 770 766 762 758 755 751 747 744 741 738 735 731 728 725 721 718 715 711 708 706 703 701 699 697 695 694 692 690 689 687 685 683 681 679 678 676 675 674 673 673 672 672 672 672 672 672 673 675 676 678 681 683 685 687 689
872 870 868 867 864 861 858 855 853 851 848 845 843 840 836 833 829 825 821 817 812 808 803 799 794 790 785 780 776 773 769 765 762 758 754 750 747 744 741 738 734 732 729 726 722 719 716 713 710 707 704 702 700 698 696 694 692 690 688 686 684 682 680 678 677 675 673 672 671 670 670 670 670 670 669 670 670 672 673 676 678 680 683 685 686
870 868 866 864 861 859 857 853 850 848 846 843 841 839 835 832 828 824 820 816 812 807 802 798 793 788 784 779 775 771 768 764 761 757 754 750 747 744 741 737 735 733 730 727 723 720 717 714 711 708 706 703 701 699 697 694 692 690 687 685 683 681 679 677 676 673 672 670 669 668 668 667 668 668 667 667 667 668 670 673 675 678 680 681 683
868 866 864 861 859 857 854 851 848 845 843 841 838 836 834 830 827 824 819 815 811 806 802 797 792 787 783 779 774 770 767 763 760 757 754 750 747 744 741 738 735 733 730 727 724 721 718 715 712 709 706 704 702 700 697 695 692 690 687 685 683 680 678 676 674 672 671 669 668 666 666 665 665 666 666 666 666 667 668 670 672 674 676 677 678
865 864 862 859 857 855 852 850 847 843 841 839 836 833 831 828 825 822 818 814 810 806 801 796 791 787 783 779 775 771 766 763 759 757 753 750 747 744 741 739 736 734 731 728 725 722 719 716 713 710 707 705 703 700 698 696 693 690 687 685 683 680 677 676 674 672 670 668 667 665 664 664 664 664 664 665 665 666 667 668 669 670 672 672 673
863 862 859 858 855 853 851 848 845 842 840 837 834 831 828 826 823 820 817 813 809 805 800 795 791 787 783 779 775 771 767 763 759 756 753 750 747 745 742 739 736 734 732 729 726 724 721 717 714 711 708 706 704 701 700 697 694 691 688 685 683 680 678 676 673 671 669 667 666 665 664 663 663 663 663 663 664 664 665 666 667 668 668 669 669
861 859 857 856 853 851 849 846 843 841 838 835 832 829 826 824 821 818 815 812 807 803 799 794 791 787 783 779 776 771 768 764 760 756 753 748 745 743 742 739 736 733 731 729 727 724 721 718 715 713 710 708 705 703 700 697 693 690 688 686 683 680 677 675 672 670 669 667 666 665 664 664 663 662 662 662 662 663 664 664 665 666 666 667 668
859 857 854 853 851 848 846 844 841 839 837 834 831 827 824 822 819 816 813 810 806 803 799 794 791 787 783 780 776 772 768 764 760 757 754 749 744 740 738 738 736 733 730 728 726 724 721 719 716 713 710 708 705 702 699 696 693 690 688 685 683 680 677 675 672 670 669 668 668 667 666 665 664 663 663 663 662 663 663 663 664 664 665 665 666